Home   Weather   Gelibolu   Past weeks

Flag for Turkey Past Weather in Gelibolu, Turkey — Yesterday and Last 2 Weeks

Now
54 °F

Clear.


Feels Like: 54 °F
Forecast: 51 / 80 °F
Wind: 2 mph from North

Location: Canakkale Airport

Current Time: Sep 29, 2016 at 4:40:15 AM

Latest Report: Sep 29, 2016 at 3:50 AM


Visibility: 10 mi

Pressure: 30.30 "Hg

Humidity: 82%

Dew Point: 48 °F

Location of GeliboluLocation

Past Weather in Gelibolu — Graph

°F

Gelibolu Temperature Yesterday

Maximum temperature yesterday: 73 °F (at 1:50 PM)
Minimum temperature yesterday: 50 °F (at 6:50 AM)
Average temperature yesterday: 64 °F

High & Low Weather Summary for the Past Weeks

 TemperatureHumidityPressure
High88 °F (Sep 14, 3:50 PM)100% (Sep 23, 4:50 AM)30.33 "Hg (Sep 23, 4:50 AM)
Low48 °F (Sep 24, 5:50 AM)29% (Sep 14, 3:50 PM)29.65 "Hg (Sep 20, 4:50 AM)
Average68 °F64%30.01 "Hg
* Reported Sep 14 4:50 AM — Sep 29 2:50 AM, Gelibolu, Weather by CustomWeather, © 2016

Note: Actual official high and low records may vary slightly from our data, if they occured in-between our weather recording intervals... More about our weather records

Advertising

Gelibolu Weather History for the Previous 24 Hours

Scroll right to see more
 ConditionsComfort  
Time TempWeatherWind HumidityBarometerVisibility
2:50 AM
Thu, Sep 29
50 °FClear.1 mph88%30.33 "Hg10 mi
1:50 AM57 °FClear.3 mph77%30.33 "Hg10 mi
12:50 AM57 °FPassing clouds.3 mph77%30.33 "HgN/A
11:50 PM
Wed, Sep 28
57 °FPassing clouds.3 mph72%30.33 "HgN/A
10:50 PM59 °FClear.2 mph68%30.33 "Hg10 mi
9:50 PM61 °FClear.2 mph63%30.33 "Hg10 mi
8:50 PM61 °FClear.5 mph63%30.30 "Hg10 mi
7:50 PM66 °FClear.5 mph52%30.30 "Hg10 mi
6:50 PM72 °FPassing clouds.10 mph47%30.27 "HgN/A
5:50 PM73 °FSunny.12 mph38%30.27 "Hg10 mi
4:50 PM73 °FSunny.13 mph36%30.27 "Hg10 mi
3:50 PM73 °FPassing clouds.16 mph38%30.30 "HgN/A
2:50 PM73 °FPassing clouds.14 mph38%30.30 "HgN/A
1:50 PM73 °FPassing clouds.18 mph38%30.33 "HgN/A
12:50 PM72 °FPassing clouds.16 mph41%30.33 "HgN/A
11:50 AM70 °FPassing clouds.16 mph43%30.33 "HgN/A
10:50 AM68 °FSunny.15 mph49%30.33 "Hg10 mi
9:50 AM64 °FSunny.14 mph64%30.33 "Hg10 mi
8:50 AM61 °FSunny.12 mph72%30.33 "Hg10 mi
7:50 AM52 °FSunny.7 mph88%30.33 "Hg10 mi
6:50 AM50 °FClear.5 mph94%30.30 "Hg10 mi
5:50 AM54 °FClear.5 mph88%30.30 "Hg10 mi
4:50 AM52 °FClear.3 mph88%30.30 "Hg10 mi
Weather by CustomWeather, © 2016

See weather overviewHow to use our weather pages